Погода в Караганде

Россия / Оренбургская область     50°42′03″N   59°43′07″E
темп.,
°C
ветер,
м/с
пор.,
м/с
влажн.,
%
обл.,
%
осадки,
мм/ч
давл.,
гПа
погр.,
м
9 марта, вт
вт923:00−9ююз8168568 0.0 1020400
02:00−11ююз715840 0.0 1019324
05:00−11ююз715883 0.0 1018296
08:00−10ююз7128635 0.0 1017261
11:00−7ююз7128168 0.0 1017381
14:00−4ююз81282100 0.0 1016594
17:00−3ююз6996100 0.5 1014604
20:00−4ююз4896100 0.7 1014327
10 марта, ср
ср1023:00−5ююз4896100 1.2 1013282
02:00−6ююз4896100 0.3 1011247
05:00−8ююз4996100 0.4 1008200
08:00−6ююз71495100 0.5 1007557
11:00−7зюз9148899 0.7 1007674
14:00−7зюз10138496 0.0 1009988
17:00−9зюз8138598 0.1 1011913
20:00−13зюз6139399 0.0 1012328
11 марта, чт
чт1123:00−15зюз6139580 0.0 1012261
02:00−18зюз7139555 0.0 1013313
05:00−20зюз7139565 0.0 1014307
08:00−21зюз7149582 0.0 1015337
11:00−18з8138987 0.0 1016591
14:00−16з9138269 0.0 1018701
17:00−17з8138141 0.0 1019606
20:00−22з6129213 0.0 1021248
12 марта, пт
пт1223:00−24з6129740 0.0 1024214
02:00−26зсз589739 0.0 1025132
05:00−27зсз479719 0.0 102693
08:00−27зсз479813 0.0 1028118
11:00−22зсз469512 0.0 1028197
14:00−17зсз57930 0.0 1028256
17:00−16зсз469534 0.0 1028226
20:00−20зсз459943 0.0 103043
13 марта, сб
сб1323:00−21зсз449833 0.0 103235
02:00−22сз34960 0.0 103327
05:00−23ссз34960 0.0 103328
08:00−22сз33940 0.0 103422
11:00−17сз228519 0.0 103590
14:00−14зсз227794 0.0 1034153
17:00−14сз228697 0.0 103327
20:00−18с1181100 0.0 103320